Find Starlink 31502

NORAD ID: 59301 Int'l Des: 2024-056 Owner: SPXS Country: US Constellation: starlink operational
LEOCIRCULAR

当前视图

正在加载3D地球...

About Starlink 31502

Starlink 31502 (NORAD 59301) is a starlink constellation satellite (v2 mini) launched Mar 24, 2024 by SPXS of US. It operates in LEO, CIRCULAR orbit with a mass of 730.00 kg.

即将过境

Passes for default location (London). Set your location on the main map for personalized predictions.

高度历史

Loading altitude history...

两行轨道根数

1 59301U 24056F 26265.14749151 .00004441 00000-0 17090-3 0 9991
2 59301 43.0003 193.9774 0001620 264.9723 95.0944 15.27561369141284
Epoch: Sep 22, 2026 • Age: 36 hours

当前状态

高度 488.6 km
远地点 / 近地点 N/A
速度 7.62 km/s
星下点 -25.45°S, 79.43°W
发射日期 Mar 24, 2024
运行时间 2.4 years
类型 internet

技术详情

分类 Payload
质量 730.00 kg
干质量 700.00 kg
长度 0.30 m
跨度 29.00 m
形状 ? Box + pan
制造商 SPXS
平台类型 Starlink V2M
阶段状态 In Orbit
所有者/国家 SPXS/US

Most Searched